Caldwell, NJ

12:13 AM EST on November 17, 2019 (GMT -0500)
Essex County

Weather History for KCDW - May, 2019

Change the Weather History Date:

Sunday, May 19, 2019

  Actual Average Record
Temperature  
Mean Temperature 68 °F -  
Max Temperature 84 °F 72 °F 95 °F (2017)
Min Temperature 55 °F 48 °F 33 °F (1983)
Cooling Degree Days 4    
Growing Degree Days 18 (Base 50)    
Moisture  
Dew Point 61 °F    
Average Humidity 70    
Maximum Humidity 93    
Minimum Humidity 56    
Precipitation  
Precipitation 0.09 in - - ()
Sea Level Pressure  
Sea Level Pressure 30.01 in    
Wind  
Wind Speed 4 mph (SSW)    
Max Wind Speed 13 mph    
Max Gust Speed 20 mph    
Visibility 9 miles    
Events Rain , Thunderstorm    
Averages and records for this station are not official NWS values.
T = Trace of Precipitation, MM = Missing Value Source: NWS Daily Summary

Daily Weather History Graph

Daily Weather History Graph

Search for Another Location

Airport or City:

Astronomy

May. 19, 2019 Rise Set
Actual Time 5:36 AM EDT 8:11 PM EDT
Civil Twilight 5:04 AM EDT 8:43 PM EDT
Nautical Twilight 4:25 AM EDT 9:22 PM EDT
Astronomical Twilight 3:41 AM EDT 10:07 PM EDT
Moon 9:09 PM EDT (5/19) 6:20 AM EDT (5/19)
Length of Visible Light 15h 38m
Length of Day
14h 35m
Full, 99% of the Moon is Illuminated
May 19
Full
May 26
Last Quarter
Jun 3
New
Jun 10
First Quarter
Jun 17
Full

Hourly Weather History & Observations

Time (EDT) Temp. Heat Index Dew Point Humidity Pressure Visibility Wind Dir Wind Speed Gust Speed Precip Events Conditions
12:53 AM 57.9 °F - 51.1 °F 78% 30.09 in 10.0 mi Calm Calm - N/A   Clear
1:53 AM 61.0 °F - 48.0 °F 62% 30.09 in 10.0 mi Calm Calm - N/A   Scattered Clouds
2:53 AM 60.1 °F - 48.0 °F 64% 30.09 in 10.0 mi Calm Calm - N/A   Partly Cloudy
3:53 AM 57.0 °F - 48.9 °F 74% 30.10 in 10.0 mi Calm Calm - N/A   Partly Cloudy
4:53 AM 55.9 °F - 50.0 °F 80% 30.09 in 10.0 mi Calm Calm - N/A   Partly Cloudy
5:53 AM 60.1 °F - 52.0 °F 75% 30.10 in 10.0 mi WNW 3.5 mph - N/A   Overcast
6:53 AM 62.1 °F - 53.1 °F 72% 30.10 in 10.0 mi Variable 3.5 mph - N/A   Mostly Cloudy
7:53 AM 64.0 °F - 54.0 °F 70% 30.10 in 10.0 mi Variable 4.6 mph - N/A   Scattered Clouds
8:53 AM 68.0 °F - 55.9 °F 65% 30.09 in 10.0 mi Variable 6.9 mph - N/A   Partly Cloudy
9:53 AM 71.1 °F - 59.0 °F 66% 30.08 in 10.0 mi Variable 6.9 mph - N/A   Mostly Cloudy
10:53 AM 73.9 °F - 62.1 °F 66% 30.07 in 10.0 mi SSW 11.5 mph - N/A   Partly Cloudy
11:53 AM 78.1 °F - 62.1 °F 58% 30.05 in 10.0 mi Variable 6.9 mph - N/A   Clear
12:53 PM 80.1 °F 81.5 °F 63.0 °F 56% 30.03 in 10.0 mi Variable 4.6 mph 19.6 mph N/A   Partly Cloudy
2:53 PM 81.0 °F 82.7 °F 64.9 °F 58% 29.98 in 10.0 mi SE 12.7 mph - N/A   Clear
3:53 PM 82.0 °F 84.1 °F 66.0 °F 58% 29.95 in 10.0 mi ESE 11.5 mph - N/A   Clear
4:53 PM 81.0 °F 83.0 °F 66.0 °F 60% 29.93 in 10.0 mi SE 8.1 mph - N/A   Clear
5:53 PM 82.9 °F 85.4 °F 66.9 °F 58% 29.91 in 10.0 mi South 6.9 mph - N/A   Clear
6:53 PM 82.9 °F 86.5 °F 69.1 °F 63% 29.90 in 10.0 mi SSW 8.1 mph - N/A   Clear
7:53 PM 81.0 °F 84.1 °F 69.1 °F 67% 29.90 in 10.0 mi SSW 6.9 mph - N/A   Clear
8:53 PM 79.0 °F - 69.1 °F 72% 29.91 in 10.0 mi Variable 4.6 mph - N/A   Clear
9:53 PM 77.0 °F - 69.1 °F 76% 29.92 in 10.0 mi South 4.6 mph - N/A   Clear
10:53 PM 75.9 °F - 69.1 °F 79% 29.94 in 10.0 mi SW 8.1 mph - N/A Thunderstorm Partly Cloudy
11:08 PM 73.9 °F - 70.0 °F 87% 29.93 in 3.0 mi WSW 9.2 mph - 0.02 in Rain , Thunderstorm Light Thunderstorms and Rain
11:23 PM 72.0 °F - 69.1 °F 91% 29.94 in 6.0 mi SW 9.2 mph - 0.04 in Rain , Thunderstorm Light Rain
11:53 PM 70.0 °F - 68.0 °F 93% 29.93 in 4.0 mi SSW 3.5 mph - 0.09 in Rain , Thunderstorm Light Thunderstorms and Rain